Битола, Грција

12:31 PM EET на 21 Јануари, 2019 (GMT +0200)
IOANNIDIS-PLOTTHOUND-Farm | | Change Station

Elev 410 ft 40.98 °N, 22.05 °E | Updated 1 minute ago

Умерено облачно
Умерено облачно
49.3 °F
Feels Like 49 °F
С
0
Ветер Променлив Ветер from ЈИ
Gusts 4.0 mph

Денес
High -- | Low -- °F
--% Chance of Precip.
Вчера
High -- | Low -- °F
Precip. -- инчи
Притисок 30.01 инчи
Видливост 0.6 миљи
Облаци Делумно облачно 200 ft
Лични чувство за темп. со ветерот 49 °F
Точка на kондензација 41 °F
Влажност 74%
Дожд 0.00 инчи
Височина на снег Not available.
7:51 AM 5:35 PM
Полна Месечина, 100% visible
METAR LGKZ 210950Z 00000KT 1000 BR SCT002 02/02 Q1016
Притисок 30.01 инчи
Видливост 0.6 миљи
Облаци Делумно облачно 200 ft
Лични чувство за темп. со ветерот 49 °F
Точка на kондензација 41 °F
Влажност 74%
Дожд 0.00 инчи
Височина на снег Not available.
7:51 AM 5:35 PM
Полна Месечина, 100% visible
METAR LGKZ 210950Z 00000KT 1000 BR SCT002 02/02 Q1016

Get Severe Weather Alerts

Thanks for signing up!

Be on the lookout for a verification email in your inbox.

You'll start receiving the daily forecast at 6 AM.

×

10-Day Weather Forecast

×

Almanac

Астрономијата

Jan. 21, 2019 Изгревање Заоѓање
Актуелно време
Граѓанскиот самрак
Наутички самрак
Астрономски самрак
Месечината
Должина на видливата светлина
Должина на денот
Tomorrow will be .
, % of the Moon is Illuminated

Екстреми денес

Country Highs Country Lows

Community

WunderPhotos

Category 6

Welcome to Category 6. This is the collective home for Weather Underground's featured writeups by Dr. Jeff Masters (right), Bob Henson (left), Chris Burt, and other regular contributors.

Nearby

Квалитетот на воздухот

  Квалитетот на воздухот AQ индекс Загадувач
Not available.

Височина на снег

Station Depth Висина

Earthquake Activity

Град Distance Mag. Time & Date
Minimum magnitude displayed is 2.5.

Coastal Water Temperatures

Место Температура

Stations

Nearby Weather Stations

Локација на станицата Темп. Лични чувство за темп. со ветерот Точка на kондензација Влажност Ветер Precip. Elev Ажурирани Тип